World > North America > United States > Illinois

Hourly New Camp, IL Regional Weather

Feedback E-mail the Weather

Quick WX

New Camp, IL Weather Maps

°F °C°F °C
New Camp Weather Map
UTC Time: 6/29/2022, 13:24
Your Time:

New Camp, IL Regional Weather

Expires:202206291400;;384685
ASUS43 KLOT 291308
RWRIL 

ILLINOIS REGIONAL WEATHER ROUNDUP
NATIONAL WEATHER SERVICE CHICAGO/ROMEOVILLE IL
800 AM CDT WED JUN 29 2022

NOTE: "FAIR" INDICATES FEW OR NO CLOUDS BELOW 12,000 FEET WITH NO
SIGNIFICANT WEATHER AND/OR OBSTRUCTIONS TO VISIBILITY.

* THESE STATIONS ARE NOT UNDER NWS QUALITY CONTROL. THEY ALSO MAY NOT
  REPORT WEATHER SUCH AS PRECIPITATION OR FOG.


ILZ064>066-069>071-074>076-080>082-084>086-088>090-092>094-291400-
SOUTH-CENTRAL ILLINOIS
  
CITY           SKY/WX    TMP DP  RH WIND       PRES   REMARKS
CARBONDALE     SUNNY     64  59  83 CALM      30.25R                  
EFFINGHAM*     SUNNY     68  55  64 SW3       30.26R                  
MARION         SUNNY     64  61  88 CALM      30.25R                  
MT. VERNON     SUNNY    N/A N/A N/A CALM      30.25R                  
CENTRALIA*     SUNNY     70  56  59 CALM      30.24S                  
SALEM*         SUNNY     69  55  62 SW5       30.25R                  
METROPOLIS*    SUNNY     64  56  76 CALM      30.25R                  
$$


SKY/WX - Weather  TMP - Temperature  DP - Dew Point  RH - Humidity
WIND - Wind Direction/Speed PRES - Barometric Pressure VSB - Visibility
WCI - Wind Chill Index E13G22 Wind - East Wind 13 mph/Gusts of 22 mph

Trending Headlines

New Camp Radar Loop



New Camp Quick Facts


National Two Day Weather Forecast


E-mail the New Camp Weather Forecast

Voice your opinion or tell us about page issues...